Satellite: AO-51
Catalog number: 28375
Epoch time:      05166.73867536
Element set:     276
Inclination:      098.2122 deg
RA of node:       229.3555 deg
Eccentricity:    0.0083410
Arg of perigee:   235.0337 deg
Mean anomaly:     124.2991 deg
Mean motion:   14.40462357 rev/day
Decay rate:       1.09e-06 rev/day^2
Epoch rev:            5040
Checksum:              296

/EX
SB KEPS @ AMSAT  $ORB05167.W
Orbital Elements  05167.WEATHER

HR AMSAT ORBITAL ELEMENTS FOR WEATHER SATELLITES
FROM WA5QGD FORT WORTH,TX June 16, 2005
Send SUBSCRIBE KEPS/UNSUBSCRIBE KEPS to majordomo@amsat.org only
BID: ORB05167.W
TO ALL RADIO AMATEURS BT

Satellite: NOAA-10
Catalog number: 16969
Epoch time:      05167.34646889
Element set:     766
Inclination:      098.7620 deg
RA of node:       173.1073 deg
Eccentricity:    0.0013208
Arg of perigee:   132.6857 deg
Mean anomaly:     227.5441 deg
Mean motion:   14.27258414 rev/day
Decay rate:       -2.2e-07 rev/day^2
Epoch rev:           97497
Checksum:              333

Satellite: NOAA-11
Catalog number: 19531
Epoch time:      05166.52644560
Element set:     618
Inclination:      098.8434 deg
RA of node:       253.5752 deg
Eccentricity:    0.0010708
Arg of perigee:   315.3900 deg
Mean anomaly:     044.6421 deg
Mean motion:   14.14758714 rev/day
Decay rate:       -4.6e-07 rev/day^2
Epoch rev:           86269
Checksum:              304

Satellite: NOAA-12
Catalog number: 21263
Epoch time:      05167.47698823
Element set:     110
Inclination:      098.7003 deg
RA of node:       157.8914 deg
Eccentricity:    0.0013794
Arg of perigee:   072.8023 deg
Mean anomaly:     287.4654 deg
Mean motion:   14.25464687 rev/day
Decay rate:       -6.7e-07 rev/day^2
Epoch rev:           73214
Checksum:              318

Satellite: MET-3/5
Catalog number: 21655
Epoch time:      05167.79824237
Element set:     842
Inclination:      082.5541 deg
RA of node:       158.9423 deg
Eccentricity:    0.0012070
Arg of perigee:   231.7308 deg
Mean anomaly:     128.2750 deg
Mean motion:   13.16999159 rev/day
Decay rate:        5.1e-07 rev/day^2
Epoch rev:           66526
Checksum:              313

Satellite: MET-2/21
Catalog number: 22782
Epoch time:      05166.82404844
Element set:     227
Inclination:      082.5482 deg
RA of node:       262.0578 deg
Eccentricity:    0.0023712
Arg of perigee:   125.7614 deg
Mean anomaly:     234.5755 deg
Mean motion:   13.83589982 rev/day
Decay rate:       1.05e-06 rev/day^2
Epoch rev:           59538
Checksum:              322

Satellite: OKEAN-4
Catalog number: 23317
Epoch time:      05167.60837382
Element set:     653
Inclination:      082.5397 deg
RA of node:       257.9186 deg
Eccentricity:    0.0023435
Arg of perigee:   135.1678 deg
Mean anomaly:     225.1435 deg
Mean motion:   14.82169576 rev/day
Decay rate:       5.01e-06 rev/day^2
Epoch rev:           57582
Checksum:              324

Satellite: NOAA-14
Catalog number: 23455
Epoch time:      05167.36876291
Element set:     633
Inclination:      099.0892 deg
RA of node:       215.6876 deg
Eccentricity:    0.0009260
Arg of perigee:   009.3862 deg
Mean anomaly:     350.7481 deg
Mean motion:   14.13572427 rev/day
Decay rate:       -4.1e-07 rev/day^2
Epoch rev:           53938
Checksum:              323

Satellite: SICH-1
Catalog number: 23657
Epoch time:      05167.76214029
Element set:     458
Inclination:      082.5287 deg
RA of node:       038.6322 deg
Eccentricity:    0.0025294
Arg of perigee:   121.6260 deg
Mean anomaly:     238.7418 deg
Mean motion:   14.81180936 rev/day
Decay rate:       4.32e-06 rev/day^2
Epoch rev:           52789
Checksum:              311

Satellite: NOAA-15
Catalog number: 25338
Epoch time:      05167.50817866
Element set:      74
Inclination:      098.5118 deg
RA of node:       175.8637 deg
Eccentricity:    0.0010800
Arg of perigee:   007.8288 deg
Mean anomaly:     352.3060 deg
Mean motion:   14.24517558 rev/day
Decay rate:       1.04e-06 rev/day^2
Epoch rev:           36865
Checksum:              313

Satellite: RESURS
Catalog number: 25394
Epoch time:      05167.22806658
Element set:     112
Inclination:      098.5388 deg
RA of node:       236.4670 deg
Eccentricity:    0.0002200
Arg of perigee:   139.0310 deg
Mean anomaly:     221.1034 deg
Mean motion:   14.24069124 rev/day
Decay rate:       1.32e-06 rev/day^2
Epoch rev:           36031
Checksum:              247

Satellite: FENGYUN1
Catalog number: 25730
Epoch time:      05166.86000897
Element set:     439
Inclination:      098.6058 deg
RA of node:       168.6987 deg
Eccentricity:    0.0015374
Arg of perigee:   103.2077 deg
Mean anomaly:     257.0808 deg
Mean motion:   14.11794207 rev/day
Decay rate:       -6.2e-07 rev/day^2
Epoch rev:           31432
Checksum:              309

Satellite: OKEAN-0
Catalog number: 25860
Epoch time:      05167.75883427
Element set:     461
Inclination:      097.7550 deg
RA of node:       193.6719 deg
Eccentricity:    0.0001226
Arg of perigee:   124.9029 deg
Mean anomaly:     235.2284 deg
Mean motion:   14.73258529 rev/day
Decay rate:       1.34e-06 rev/day^2
Epoch rev:           31794
Checksum:              316

Satellite: NOAA-16
Catalog number: 26536
Epoch time:      05167.51033965
Element set:     386
Inclination:      099.0138 deg
RA of node:       125.9507 deg
Eccentricity:    0.0011394
Arg of perigee:   071.9852 deg
Mean anomaly:     288.2558 deg
Mean motion:   14.12248530 rev/day
Decay rate:       3.47e-06 rev/day^2
Epoch rev:           24396
Checksum:              322

